Regional Weather Roundup
Issued by NWS

Home | Current Version | Previous Version | Text Only | Print | Product List | Glossary Off
Versions: 1 2 3 4 5 6 7 8 9 10 11 12 13 14 15 16 17 18 19 20 21 22 23 24 25 26 27 28 29 30 31 32 33 34 35 36 37 38 39 40 41 42 43 44 45 46 47 48 49 50

000
ASUS45 KABQ 281901
RWRNM
NEW MEXICO REGIONAL WEATHER ROUNDUP
NATIONAL WEATHER SERVICE ALBUQUERQUE NM
100 PM MDT THU APR 28 2016

NOTE: "FAIR" MEANS FEW OR NO CLOUDS BELOW 12,000 FEET AGL WITH NO
       SIGNIFICANT WEATHER OR OBSTRUCTIONS TO VISION.

      THIS PRODUCT IS RELEASED AS TWO VERSIONS.  ONE VERSION NEAR
      THE TOP OF THE HOUR CONTAINING PRELIMINARY DATA FROM ALBUQUERQUE
      AND OTHER STATIONS.  A FINAL VERSION WITH ADDITIONAL DATA IS
      ISSUED ABOUT 10 MINUTES AFTER THE HOUR.

NMZ501-503-504-510>518-282000-
NORTHWEST PLATEAU/NORTHCENTRAL MOUNTAINS

CITY           SKY/WX    TMP DP  RH WIND       PRES   REMARKS
FARMINGTON     PTSUNNY   62  18  18 SW13      29.72F
SANTA FE       PTSUNNY   64  24  21 SE18G29   29.78F
TAOS           FAIR      63  19  19 SW21G32   29.81F

$$
NMZ402-403-502-505>509-282000-
WESTCENTRAL MOUNTAINS/SOUTHWEST MOUNTAINS

CITY           SKY/WX    TMP DP  RH WIND       PRES   REMARKS
GALLUP         FAIR      63   9  12 SW18G37   29.73F
GRANTS         FAIR      64   1   8 SW18G33   29.78S
SILVER CITY      N/A     66   5   9 SW13G32   29.84F

$$
NMZ407-409-411-412-282000-
SOUTHERN DESERTS

CITY           SKY/WX    TMP DP  RH WIND       PRES   REMARKS
LORDSBURG      FAIR      72  12  10 S8        29.78F
DEMING         FAIR      74  15  10 SW20G29   29.79F
HOLLOMAN AFB   FAIR      77  12   8 SW18G29   29.75F
ALAMOGORDO     FAIR      75  18  11 S12G18    29.78F
T OR C         FAIR      72  14  11 S22G33    29.75F

$$
NMZ519>523-282000-
CENTRAL VALLEYS/CENTRAL HIGHLANDS

CITY           SKY/WX    TMP DP  RH WIND       PRES   REMARKS
ALBUQUERQUE    FAIR      70  13  11 SW18G33   29.75F
DOUBLE EAGLE   MOSUNNY   66  18  15 S10G20    29.78F
CLINES CORNERS FAIR      63  16  16 S18G31    29.84F
BELEN          FAIR      71  15  11 SE18      29.75F
SOCORRO        NOT AVBL

$$
NMZ524>526-539-540-282000-
SOUTHCENTRAL MOUNTAINS

CITY           SKY/WX    TMP DP  RH WIND       PRES   REMARKS
RUIDOSO        NOT AVBL

$$
NMZ527>531-282000-
NORTHEAST HIGHLANDS/NORTHEAST PLAINS

CITY           SKY/WX    TMP DP  RH WIND       PRES   REMARKS
LAS VEGAS      PTSUNNY   58  30  34 SE9       29.88F
RATON          PTSUNNY   54  33  45 SW10      29.88F
CLAYTON        PTSUNNY   49  36  61 NE16      29.95F

$$
NMZ532>537-282000-
EASTCENTRAL PLAINS

CITY           SKY/WX    TMP DP  RH WIND       PRES   REMARKS
TUCUMCARI      FAIR      71  42  35 NE20G28   29.81F
CANNON AFB     NOT AVBL
CLOVIS AIRPORT FAIR      79  34  19 SE18G24   29.78F

$$
NMZ028-029-538-282000-
SOUTHEAST PLAINS

CITY           SKY/WX    TMP DP  RH WIND       PRES   REMARKS
ROSWELL        FAIR      82  16   8 SW18G25   29.72F
ARTESIA        FAIR      82  19   9 S18G28    29.74F
CARLSBAD       FAIR      85  12   6 W16G28    29.72F
HOBBS          SUNNY     82  19   9 SW9       29.76F


$$



USA.gov is the U.S. government's official web portal to all federal, state and local government web resources and services.